Time,TemperatureF,DewpointF,PressureIn,WindDirection,WindDirectionDegrees,WindSpeedMPH,WindSpeedGustMPH,Humidity,HourlyPrecipIn,Conditions,Clouds,dailyrainin,SoftwareType,DateUTC
2013-11-17 00:00:00,72.5,68.1,29.68,SE,139,6.0,6.0,86,0.00,,,0.00,Wunderground v.1.15,2013-11-17 06:00:00,
2013-11-17 00:04:00,72.5,68.1,29.68,South,180,5.0,7.0,86,0.00,,---,0.00,VWS V14.01,2013-11-17 06:04:00,
2013-11-17 00:05:00,72.5,68.1,29.68,SE,139,8.0,8.0,86,0.00,,,0.00,Wunderground v.1.15,2013-11-17 06:05:00,
2013-11-17 00:09:00,72.5,68.1,29.68,SE,143,7.0,8.0,86,0.00,,---,0.00,VWS V14.01,2013-11-17 06:09:00,
2013-11-17 00:14:00,72.5,68.1,29.68,SSE,166,8.0,10.0,86,0.00,,---,0.00,VWS V14.01,2013-11-17 06:14:00,
2013-11-17 00:15:00,72.5,68.1,29.68,South,177,6.0,7.0,86,0.00,,,0.01,Wunderground v.1.15,2013-11-17 06:15:00,
2013-11-17 00:20:00,72.5,68.1,29.68,South,179,3.0,11.0,86,0.01,,---,0.01,VWS V14.01,2013-11-17 06:20:00,
2013-11-17 00:25:00,72.5,68.1,29.68,SSE,147,6.0,7.0,86,0.01,,---,0.01,VWS V14.01,2013-11-17 06:25:00,
2013-11-17 00:30:00,72.5,68.1,29.68,South,174,3.0,12.0,86,0.01,,---,0.01,VWS V14.01,2013-11-17 06:30:00,
2013-11-17 00:35:00,72.5,67.7,29.68,SE,142,3.0,11.0,85,0.01,,---,0.01,VWS V14.01,2013-11-17 06:35:00,
2013-11-17 00:40:00,72.7,67.9,29.67,SSE,163,6.0,6.0,85,0.00,,,0.01,Wunderground v.1.15,2013-11-17 06:40:00,
2013-11-17 00:45:00,72.7,67.9,29.67,SSW,194,7.0,7.0,85,0.00,,,0.01,Wunderground v.1.15,2013-11-17 06:45:00,
2013-11-17 00:50:00,72.7,67.9,29.67,South,184,7.0,7.0,85,0.01,,---,0.01,VWS V14.01,2013-11-17 06:50:00,
2013-11-17 00:55:00,72.7,67.9,29.67,SE,139,8.0,8.0,85,0.00,,,0.01,Wunderground v.1.15,2013-11-17 06:55:00,
2013-11-17 01:00:00,72.7,67.9,29.67,South,169,7.0,7.0,85,0.00,,,0.01,Wunderground v.1.15,2013-11-17 07:00:00,
2013-11-17 01:05:00,72.7,67.9,29.67,South,181,7.0,7.0,85,0.00,,,0.01,Wunderground v.1.15,2013-11-17 07:05:00,
2013-11-17 01:10:00,72.5,67.7,29.67,South,179,8.0,8.0,85,0.00,,,0.01,Wunderground v.1.15,2013-11-17 07:10:00,
2013-11-17 01:11:00,72.5,67.7,29.67,South,179,8.0,8.0,85,0.01,,---,0.01,VWS V14.01,2013-11-17 07:11:00,
2013-11-17 01:15:00,72.3,67.5,29.67,South,174,6.0,8.0,85,0.00,,,0.01,Wunderground v.1.15,2013-11-17 07:15:00,
2013-11-17 01:16:00,72.3,67.5,29.67,South,174,6.0,8.0,85,0.01,,---,0.01,VWS V14.01,2013-11-17 07:16:00,
2013-11-17 01:20:00,72.5,68.1,29.67,SSE,167,6.0,6.0,86,0.00,,,0.01,Wunderground v.1.15,2013-11-17 07:20:00,
2013-11-17 01:21:00,72.5,68.1,29.67,SSE,167,2.0,11.0,86,0.00,,---,0.01,VWS V14.01,2013-11-17 07:21:00,
2013-11-17 01:25:00,72.5,68.1,29.67,South,179,4.0,6.0,86,0.00,,,0.01,Wunderground v.1.15,2013-11-17 07:25:00,
2013-11-17 01:26:00,72.5,68.1,29.67,SSE,149,2.0,11.0,86,0.00,,---,0.01,VWS V14.01,2013-11-17 07:26:00,
2013-11-17 01:31:00,72.5,68.1,29.67,SSE,164,5.0,5.0,86,0.00,,---,0.01,VWS V14.01,2013-11-17 07:31:00,
2013-11-17 01:35:00,72.5,68.1,29.67,South,180,6.0,6.0,86,0.00,,,0.01,Wunderground v.1.15,2013-11-17 07:35:00,
2013-11-17 01:36:00,72.5,68.1,29.67,South,183,7.0,11.0,86,0.00,,---,0.01,VWS V14.01,2013-11-17 07:36:00,
2013-11-17 01:40:00,72.5,68.1,29.67,SSE,157,6.0,6.0,86,0.00,,,0.01,Wunderground v.1.15,2013-11-17 07:40:00,
2013-11-17 01:41:00,72.5,68.1,29.67,SSE,157,6.0,6.0,86,0.00,,---,0.01,VWS V14.01,2013-11-17 07:41:00,
2013-11-17 01:45:00,72.5,68.1,29.67,SSE,159,6.0,6.0,86,0.00,,,0.01,Wunderground v.1.15,2013-11-17 07:45:00,
2013-11-17 01:46:00,72.5,68.1,29.66,South,183,8.0,8.0,86,0.00,,---,0.01,VWS V14.01,2013-11-17 07:46:00,
2013-11-17 01:50:00,72.5,68.1,29.66,SE,136,6.0,6.0,86,0.00,,,0.01,Wunderground v.1.15,2013-11-17 07:50:00,
2013-11-17 01:51:00,72.5,68.1,29.67,SSW,201,5.0,5.0,86,0.00,,---,0.01,VWS V14.01,2013-11-17 07:51:00,
2013-11-17 01:55:00,72.5,68.1,29.66,SSE,163,7.0,7.0,86,0.00,,,0.01,Wunderground v.1.15,2013-11-17 07:55:00,
2013-11-17 01:56:00,72.5,68.1,29.66,SSE,155,5.0,7.0,86,0.00,,---,0.01,VWS V14.01,2013-11-17 07:56:00,
2013-11-17 02:01:00,72.5,68.1,29.66,South,183,6.0,6.0,86,0.00,,---,0.01,VWS V14.01,2013-11-17 08:01:00,
2013-11-17 02:05:00,72.5,68.1,29.66,SSE,153,6.0,10.0,86,0.00,,,0.01,Wunderground v.1.15,2013-11-17 08:05:00,
2013-11-17 02:06:00,72.5,68.4,29.66,SE,143,3.0,13.0,87,0.00,,---,0.01,VWS V14.01,2013-11-17 08:06:00,
2013-11-17 02:10:00,72.5,68.4,29.66,SSE,162,6.0,6.0,87,0.00,,,0.01,Wunderground v.1.15,2013-11-17 08:10:00,
2013-11-17 02:12:00,72.5,68.4,29.66,South,170,3.0,5.0,87,0.00,,---,0.01,VWS V14.01,2013-11-17 08:12:00,
2013-11-17 02:15:00,72.5,68.4,29.66,SSE,149,5.0,6.0,87,0.00,,,0.01,Wunderground v.1.15,2013-11-17 08:15:00,
2013-11-17 02:17:00,72.5,68.4,29.66,South,191,7.0,10.0,87,0.00,,---,0.01,VWS V14.01,2013-11-17 08:17:00,
2013-11-17 02:20:00,72.5,68.4,29.66,SE,143,5.0,8.0,87,0.00,,,0.01,Wunderground v.1.15,2013-11-17 08:20:00,
2013-11-17 02:23:00,72.5,68.4,29.66,SSE,160,3.0,8.0,87,0.00,,---,0.01,VWS V14.01,2013-11-17 08:23:00,
2013-11-17 02:25:00,72.5,68.4,29.66,South,180,6.0,8.0,87,0.00,,,0.01,Wunderground v.1.15,2013-11-17 08:25:00,
2013-11-17 02:28:00,72.5,68.4,29.66,South,169,8.0,8.0,87,0.00,,---,0.01,VWS V14.01,2013-11-17 08:28:00,
2013-11-17 02:30:00,72.5,68.4,29.66,South,171,5.0,5.0,87,0.00,,,0.01,Wunderground v.1.15,2013-11-17 08:30:00,
2013-11-17 02:33:00,72.5,68.4,29.66,SSE,163,5.0,7.0,87,0.00,,---,0.01,VWS V14.01,2013-11-17 08:33:00,
2013-11-17 02:35:00,72.5,68.7,29.66,SE,139,5.0,5.0,88,0.00,,,0.01,Wunderground v.1.15,2013-11-17 08:35:00,
2013-11-17 02:38:00,72.3,68.6,29.66,SE,133,5.0,8.0,88,0.00,,---,0.01,VWS V14.01,2013-11-17 08:38:00,
2013-11-17 02:40:00,72.3,68.5,29.66,South,184,4.0,6.0,88,0.00,,,0.01,Wunderground v.1.15,2013-11-17 08:40:00,
2013-11-17 02:43:00,72.3,68.6,29.66,South,183,5.0,7.0,88,0.00,,---,0.01,VWS V14.01,2013-11-17 08:43:00,
2013-11-17 02:45:00,72.3,68.5,29.66,South,186,4.0,7.0,88,0.00,,,0.01,Wunderground v.1.15,2013-11-17 08:45:00,
2013-11-17 02:48:00,72.3,68.6,29.66,SSE,157,6.0,10.0,88,0.00,,---,0.01,VWS V14.01,2013-11-17 08:48:00,
2013-11-17 02:50:00,72.3,68.5,29.66,SSE,164,5.0,5.0,88,0.00,,,0.01,Wunderground v.1.15,2013-11-17 08:50:00,
2013-11-17 02:54:00,72.3,68.9,29.66,SE,143,3.0,8.0,89,0.00,,---,0.01,VWS V14.01,2013-11-17 08:54:00,
2013-11-17 02:55:00,72.3,68.9,29.66,SSE,149,5.0,5.0,89,0.00,,,0.01,Wunderground v.1.15,2013-11-17 08:55:00,
2013-11-17 03:00:00,72.3,68.9,29.66,SSE,152,3.0,8.0,89,0.00,,---,0.01,VWS V14.01,2013-11-17 09:00:00,
2013-11-17 03:05:00,72.3,68.9,29.66,SE,139,3.0,6.0,89,0.00,,---,0.01,VWS V14.01,2013-11-17 09:05:00,
2013-11-17 03:10:00,72.1,68.7,29.66,SSE,166,3.0,3.0,89,0.00,,---,0.01,VWS V14.01,2013-11-17 09:10:00,
2013-11-17 03:15:00,72.1,68.7,29.66,SSE,162,6.0,7.0,89,0.00,,---,0.01,VWS V14.01,2013-11-17 09:15:00,
2013-11-17 03:20:00,72.1,68.7,29.66,SE,139,4.0,5.0,89,0.00,,,0.01,Wunderground v.1.15,2013-11-17 09:20:00,
2013-11-17 03:25:00,72.3,68.9,29.66,SSE,150,5.0,8.0,89,0.00,,---,0.01,VWS V14.01,2013-11-17 09:25:00,
2013-11-17 03:30:00,72.3,68.9,29.66,SE,139,3.0,3.0,89,0.00,,---,0.01,VWS V14.01,2013-11-17 09:30:00,
2013-11-17 03:35:00,72.3,68.9,29.66,South,181,4.0,4.0,89,0.00,,,0.01,Wunderground v.1.15,2013-11-17 09:35:00,
2013-11-17 03:40:00,72.3,68.9,29.66,SSE,153,3.0,3.0,89,0.00,,,0.01,Wunderground v.1.15,2013-11-17 09:40:00,
2013-11-17 03:45:00,72.3,68.9,29.66,SE,139,4.0,4.0,89,0.00,,,0.01,Wunderground v.1.15,2013-11-17 09:45:00,
2013-11-17 03:50:00,72.3,68.9,29.66,SE,126,2.0,3.0,89,0.00,,---,0.01,VWS V14.01,2013-11-17 09:50:00,
2013-11-17 03:55:00,72.3,68.9,29.66,SSE,164,3.0,5.0,89,0.00,,,0.01,Wunderground v.1.15,2013-11-17 09:55:00,
2013-11-17 04:00:00,72.3,68.9,29.65,South,177,4.0,4.0,89,0.00,,,0.01,Wunderground v.1.15,2013-11-17 10:00:00,
2013-11-17 04:05:00,72.3,68.9,29.65,SSE,166,4.0,4.0,89,0.00,,,0.01,Wunderground v.1.15,2013-11-17 10:05:00,
2013-11-17 04:06:00,72.3,68.9,29.65,South,184,6.0,6.0,89,0.00,,---,0.01,VWS V14.01,2013-11-17 10:06:00,
2013-11-17 04:10:00,72.3,68.9,29.65,SE,142,3.0,3.0,89,0.00,,,0.01,Wunderground v.1.15,2013-11-17 10:10:00,
2013-11-17 04:11:00,72.3,68.9,29.65,South,169,3.0,6.0,89,0.00,,---,0.01,VWS V14.01,2013-11-17 10:11:00,
2013-11-17 04:15:00,72.3,68.9,29.65,SSE,157,4.0,4.0,89,0.00,,,0.01,Wunderground v.1.15,2013-11-17 10:15:00,
2013-11-17 04:16:00,72.3,68.9,29.65,SSE,159,2.0,7.0,89,0.00,,---,0.01,VWS V14.01,2013-11-17 10:16:00,
2013-11-17 04:20:00,72.3,68.9,29.65,SSE,156,4.0,6.0,89,0.00,,,0.01,Wunderground v.1.15,2013-11-17 10:20:00,
2013-11-17 04:21:00,72.3,68.9,29.65,SE,146,5.0,6.0,89,0.00,,---,0.01,VWS V14.01,2013-11-17 10:21:00,
2013-11-17 04:26:00,72.3,69.2,29.65,SE,135,3.0,6.0,90,0.00,,---,0.01,VWS V14.01,2013-11-17 10:26:00,
2013-11-17 04:30:00,72.3,69.2,29.65,SSW,197,4.0,4.0,90,0.00,,,0.01,Wunderground v.1.15,2013-11-17 10:30:00,
2013-11-17 04:31:00,72.3,69.2,29.65,SSE,150,3.0,6.0,90,0.00,,---,0.01,VWS V14.01,2013-11-17 10:31:00,
2013-11-17 04:35:00,72.1,69.0,29.65,South,184,3.0,4.0,90,0.00,,,0.01,Wunderground v.1.15,2013-11-17 10:35:00,
2013-11-17 04:36:00,72.1,69.0,29.65,South,169,5.0,6.0,90,0.00,,---,0.01,VWS V14.01,2013-11-17 10:36:00,
2013-11-17 04:40:00,72.1,69.0,29.65,South,181,4.0,4.0,90,0.00,,,0.01,Wunderground v.1.15,2013-11-17 10:40:00,
2013-11-17 04:41:00,72.1,69.0,29.65,South,181,3.0,3.0,90,0.00,,---,0.01,VWS V14.01,2013-11-17 10:41:00,
2013-11-17 04:45:00,72.1,69.0,29.65,South,170,4.0,5.0,90,0.00,,,0.01,Wunderground v.1.15,2013-11-17 10:45:00,
2013-11-17 04:46:00,72.1,69.0,29.65,South,170,6.0,8.0,90,0.00,,---,0.01,VWS V14.01,2013-11-17 10:46:00,
2013-11-17 04:50:00,72.1,69.0,29.64,South,169,4.0,4.0,90,0.00,,,0.01,Wunderground v.1.15,2013-11-17 10:50:00,
2013-11-17 04:51:00,72.1,69.0,29.64,SSE,164,5.0,6.0,90,0.00,,---,0.01,VWS V14.01,2013-11-17 10:51:00,
2013-11-17 04:55:00,72.1,69.0,29.64,SE,143,4.0,5.0,90,0.00,,,0.01,Wunderground v.1.15,2013-11-17 10:55:00,
2013-11-17 04:56:00,72.1,69.0,29.64,SE,146,2.0,7.0,90,0.00,,---,0.01,VWS V14.01,2013-11-17 10:56:00,
2013-11-17 05:00:00,72.0,68.9,29.64,SSE,152,4.0,4.0,90,0.00,,,0.01,Wunderground v.1.15,2013-11-17 11:00:00,
2013-11-17 05:03:00,72.0,69.2,29.64,South,173,5.0,5.0,91,0.00,,---,0.01,VWS V14.01,2013-11-17 11:03:00,
2013-11-17 05:05:00,72.0,69.2,29.65,SE,145,3.0,3.0,91,0.00,,,0.01,Wunderground v.1.15,2013-11-17 11:05:00,
2013-11-17 05:08:00,72.0,69.2,29.64,SSE,157,3.0,6.0,91,0.00,,---,0.01,VWS V14.01,2013-11-17 11:08:00,
2013-11-17 05:10:00,72.0,69.2,29.64,South,174,3.0,3.0,91,0.00,,,0.01,Wunderground v.1.15,2013-11-17 11:10:00,
2013-11-17 05:14:00,72.0,69.2,29.64,South,170,3.0,6.0,91,0.00,,---,0.01,VWS V14.01,2013-11-17 11:14:00,
2013-11-17 05:15:00,72.0,69.2,29.64,SSE,167,3.0,5.0,91,0.00,,,0.01,Wunderground v.1.15,2013-11-17 11:15:00,
2013-11-17 05:19:00,71.8,69.0,29.64,SE,145,5.0,6.0,91,0.00,,---,0.01,VWS V14.01,2013-11-17 11:19:00,
2013-11-17 05:20:00,71.8,69.0,29.65,South,184,4.0,4.0,91,0.00,,,0.01,Wunderground v.1.15,2013-11-17 11:20:00,
2013-11-17 05:24:00,71.8,69.0,29.65,SE,139,7.0,7.0,91,0.00,,---,0.01,VWS V14.01,2013-11-17 11:24:00,
2013-11-17 05:25:00,71.8,69.0,29.65,South,191,4.0,8.0,91,0.00,,,0.01,Wunderground v.1.15,2013-11-17 11:25:00,
2013-11-17 05:29:00,71.8,69.0,29.65,SE,136,5.0,8.0,91,0.00,,---,0.01,VWS V14.01,2013-11-17 11:29:00,
2013-11-17 05:34:00,71.8,69.0,29.64,SE,139,2.0,10.0,91,0.00,,---,0.01,VWS V14.01,2013-11-17 11:34:00,
2013-11-17 05:35:00,71.8,69.0,29.64,SE,146,4.0,4.0,91,0.00,,,0.01,Wunderground v.1.15,2013-11-17 11:35:00,
2013-11-17 05:39:00,71.8,69.0,29.64,South,171,3.0,10.0,91,0.00,,---,0.01,VWS V14.01,2013-11-17 11:39:00,
2013-11-17 05:40:00,71.8,69.0,29.64,South,170,4.0,5.0,91,0.00,,,0.01,Wunderground v.1.15,2013-11-17 11:40:00,
2013-11-17 05:44:00,71.6,68.8,29.64,South,187,3.0,7.0,91,0.00,,---,0.01,VWS V14.01,2013-11-17 11:44:00,
2013-11-17 05:45:00,71.6,69.2,29.64,SE,143,4.0,5.0,92,0.00,,,0.01,Wunderground v.1.15,2013-11-17 11:45:00,
2013-11-17 05:49:00,71.6,69.2,29.64,SSE,157,3.0,8.0,92,0.00,,---,0.01,VWS V14.01,2013-11-17 11:49:00,
2013-11-17 05:50:00,71.6,69.2,29.64,SSE,157,4.0,4.0,92,0.00,,,0.01,Wunderground v.1.15,2013-11-17 11:50:00,
2013-11-17 05:55:00,71.5,69.1,29.64,SE,139,5.0,5.0,92,0.00,,---,0.01,VWS V14.01,2013-11-17 11:55:00,
2013-11-17 06:00:00,71.5,69.1,29.64,South,176,3.0,3.0,92,0.00,,,0.01,Wunderground v.1.15,2013-11-17 12:00:00,
2013-11-17 06:05:00,71.5,69.1,29.65,SSW,193,2.0,7.0,92,0.00,,---,0.01,VWS V14.01,2013-11-17 12:05:00,
2013-11-17 06:10:00,71.5,69.1,29.65,SSE,162,3.0,3.0,92,0.00,,,0.01,Wunderground v.1.15,2013-11-17 12:10:00,
2013-11-17 06:15:00,71.3,68.9,29.65,SSE,162,2.0,3.0,92,0.00,,,0.01,Wunderground v.1.15,2013-11-17 12:15:00,
2013-11-17 06:20:00,71.3,68.9,29.66,SSE,162,2.0,2.0,92,0.00,,,0.01,Wunderground v.1.15,2013-11-17 12:20:00,
2013-11-17 06:25:00,71.5,69.1,29.66,SE,143,2.0,2.0,92,0.00,,,0.01,Wunderground v.1.15,2013-11-17 12:25:00,
2013-11-17 06:30:00,71.5,69.1,29.66,SE,143,2.0,2.0,92,0.00,,,0.01,Wunderground v.1.15,2013-11-17 12:30:00,
2013-11-17 06:35:00,71.5,69.1,29.66,SSE,152,2.0,3.0,92,0.00,,,0.01,Wunderground v.1.15,2013-11-17 12:35:00,
2013-11-17 06:40:00,71.6,69.2,29.66,SSE,152,2.0,2.0,92,0.00,,,0.01,Wunderground v.1.15,2013-11-17 12:40:00,
2013-11-17 06:45:00,71.6,69.2,29.66,SSE,150,2.0,2.0,92,0.00,,,0.01,Wunderground v.1.15,2013-11-17 12:45:00,
2013-11-17 06:46:00,71.6,69.2,29.66,SSE,150,2.0,3.0,92,0.00,,---,0.01,VWS V14.01,2013-11-17 12:46:00,
2013-11-17 06:50:00,71.6,69.2,29.65,SSE,162,3.0,6.0,92,0.00,,,0.01,Wunderground v.1.15,2013-11-17 12:50:00,
2013-11-17 06:51:00,71.6,69.2,29.65,SSE,162,6.0,7.0,92,0.00,,---,0.01,VWS V14.01,2013-11-17 12:51:00,
2013-11-17 06:55:00,71.6,69.2,29.66,SSE,164,3.0,6.0,92,0.00,,,0.01,Wunderground v.1.15,2013-11-17 12:55:00,
2013-11-17 06:56:00,71.6,69.2,29.66,SSE,164,2.0,7.0,92,0.00,,---,0.01,VWS V14.01,2013-11-17 12:56:00,
2013-11-17 07:00:00,71.6,69.2,29.66,SSE,152,3.0,3.0,92,0.00,,,0.01,Wunderground v.1.15,2013-11-17 13:00:00,
2013-11-17 07:01:00,71.5,69.1,29.66,SSE,153,2.0,3.0,92,0.00,,---,0.01,VWS V14.01,2013-11-17 13:01:00,
2013-11-17 07:05:00,71.5,69.1,29.66,South,174,3.0,3.0,92,0.00,,,0.01,Wunderground v.1.15,2013-11-17 13:05:00,
2013-11-17 07:06:00,71.6,69.2,29.66,South,174,5.0,7.0,92,0.00,,---,0.01,VWS V14.01,2013-11-17 13:06:00,
2013-11-17 07:10:00,71.6,69.2,29.66,South,187,3.0,3.0,92,0.00,,,0.01,Wunderground v.1.15,2013-11-17 13:10:00,
2013-11-17 07:11:00,71.6,69.2,29.66,SSE,149,2.0,5.0,92,0.00,,---,0.01,VWS V14.01,2013-11-17 13:11:00,
2013-11-17 07:15:00,71.6,69.2,29.66,South,184,3.0,3.0,92,0.00,,,0.01,Wunderground v.1.15,2013-11-17 13:15:00,
2013-11-17 07:16:00,71.6,69.2,29.66,SE,142,2.0,6.0,92,0.00,,---,0.01,VWS V14.01,2013-11-17 13:16:00,
2013-11-17 07:21:00,71.8,69.3,29.66,SSE,166,3.0,5.0,92,0.00,,---,0.01,VWS V14.01,2013-11-17 13:21:00,
2013-11-17 07:25:00,71.8,69.0,29.66,SSE,159,4.0,4.0,91,0.00,,,0.01,Wunderground v.1.15,2013-11-17 13:25:00,
2013-11-17 07:27:00,71.8,69.3,29.67,SSW,198,5.0,10.0,92,0.00,,---,0.01,VWS V14.01,2013-11-17 13:27:00,
2013-11-17 07:30:00,72.0,69.2,29.67,SE,142,5.0,6.0,91,0.00,,,0.01,Wunderground v.1.15,2013-11-17 13:30:00,
2013-11-17 07:32:00,72.0,69.2,29.67,South,179,6.0,6.0,91,0.00,,---,0.01,VWS V14.01,2013-11-17 13:32:00,
2013-11-17 07:35:00,72.1,69.3,29.67,South,180,5.0,6.0,91,0.00,,,0.01,Wunderground v.1.15,2013-11-17 13:35:00,
2013-11-17 07:37:00,72.1,69.0,29.67,South,184,3.0,7.0,90,0.00,,---,0.01,VWS V14.01,2013-11-17 13:37:00,
2013-11-17 07:40:00,72.3,69.2,29.67,South,188,5.0,5.0,90,0.00,,,0.01,Wunderground v.1.15,2013-11-17 13:40:00,
2013-11-17 07:42:00,72.3,69.2,29.67,South,186,5.0,5.0,90,0.00,,---,0.01,VWS V14.01,2013-11-17 13:42:00,
2013-11-17 07:45:00,72.5,69.1,29.67,SSE,167,5.0,6.0,89,0.00,,,0.01,Wunderground v.1.15,2013-11-17 13:45:00,
2013-11-17 07:47:00,72.7,69.3,29.67,South,171,5.0,10.0,89,0.00,,---,0.01,VWS V14.01,2013-11-17 13:47:00,
2013-11-17 07:50:00,72.8,69.4,29.67,SW,217,5.0,7.0,89,0.00,,,0.01,Wunderground v.1.15,2013-11-17 13:50:00,
2013-11-17 07:52:00,72.8,69.4,29.68,South,170,3.0,7.0,89,0.00,,---,0.01,VWS V14.01,2013-11-17 13:52:00,
2013-11-17 07:57:00,73.2,69.8,29.68,South,180,3.0,7.0,89,0.00,,---,0.01,VWS V14.01,2013-11-17 13:57:00,
2013-11-17 08:00:00,73.3,69.9,29.68,South,177,4.0,4.0,89,0.00,,,0.01,Wunderground v.1.15,2013-11-17 14:00:00,
2013-11-17 08:02:00,73.5,70.1,29.68,SSW,205,5.0,6.0,89,0.00,,---,0.01,VWS V14.01,2013-11-17 14:02:00,
2013-11-17 08:05:00,73.7,69.2,29.68,SE,146,5.0,6.0,86,0.00,,,0.01,Wunderground v.1.15,2013-11-17 14:05:00,
2013-11-17 08:07:00,73.9,69.1,29.68,South,190,7.0,10.0,85,0.00,,---,0.01,VWS V14.01,2013-11-17 14:07:00,
2013-11-17 08:10:00,73.9,69.1,29.68,South,180,6.0,7.0,85,0.00,,,0.01,Wunderground v.1.15,2013-11-17 14:10:00,
2013-11-17 08:12:00,74.0,69.2,29.68,South,177,5.0,10.0,85,0.00,,---,0.01,VWS V14.01,2013-11-17 14:12:00,
2013-11-17 08:17:00,74.0,69.2,29.69,SSW,198,7.0,10.0,85,0.00,,---,0.01,VWS V14.01,2013-11-17 14:17:00,
2013-11-17 08:20:00,74.2,69.1,29.69,SSE,164,6.0,6.0,84,0.00,,,0.01,Wunderground v.1.15,2013-11-17 14:20:00,
2013-11-17 08:22:00,74.2,69.1,29.69,SW,218,10.0,11.0,84,0.00,,---,0.01,VWS V14.01,2013-11-17 14:22:00,
2013-11-17 08:25:00,74.2,69.1,29.69,SSE,162,6.0,7.0,84,0.00,,,0.01,Wunderground v.1.15,2013-11-17 14:25:00,
2013-11-17 08:27:00,74.2,69.1,29.69,SSW,201,5.0,13.0,84,0.00,,---,0.01,VWS V14.01,2013-11-17 14:27:00,
2013-11-17 08:30:00,74.4,69.2,29.70,SW,224,7.0,7.0,84,0.00,,,0.01,Wunderground v.1.15,2013-11-17 14:30:00,
2013-11-17 08:32:00,74.4,69.3,29.70,SSE,162,7.0,11.0,84,0.00,,---,0.01,VWS V14.01,2013-11-17 14:32:00,
2013-11-17 08:35:00,74.6,69.4,29.70,South,191,7.0,10.0,84,0.00,,,0.01,Wunderground v.1.15,2013-11-17 14:35:00,
2013-11-17 08:37:00,74.6,69.4,29.70,SSE,166,6.0,17.0,84,0.00,,---,0.01,VWS V14.01,2013-11-17 14:37:00,
2013-11-17 08:40:00,74.6,69.1,29.70,SSE,166,7.0,7.0,83,0.00,,,0.01,Wunderground v.1.15,2013-11-17 14:40:00,
2013-11-17 08:43:00,74.7,69.2,29.70,South,176,6.0,11.0,83,0.00,,---,0.01,VWS V14.01,2013-11-17 14:43:00,
2013-11-17 08:45:00,74.7,69.2,29.70,SSW,195,7.0,7.0,83,0.00,,,0.01,Wunderground v.1.15,2013-11-17 14:45:00,
2013-11-17 08:48:00,74.7,69.2,29.70,South,170,7.0,11.0,83,0.00,,---,0.01,VWS V14.01,2013-11-17 14:48:00,
2013-11-17 08:50:00,74.9,69.4,29.70,South,183,7.0,7.0,83,0.00,,,0.01,Wunderground v.1.15,2013-11-17 14:50:00,
2013-11-17 08:53:00,74.9,69.4,29.70,South,191,7.0,10.0,83,0.00,,---,0.01,VWS V14.01,2013-11-17 14:53:00,
2013-11-17 08:55:00,74.9,69.4,29.70,SW,221,7.0,7.0,83,0.00,,,0.01,Wunderground v.1.15,2013-11-17 14:55:00,
2013-11-17 08:59:00,75.1,69.2,29.70,SSW,212,8.0,12.0,82,0.00,,---,0.01,VWS V14.01,2013-11-17 14:59:00,
2013-11-17 09:00:00,75.1,69.2,29.70,SSE,159,7.0,13.0,82,0.00,,,0.01,Wunderground v.1.15,2013-11-17 15:00:00,
2013-11-17 09:03:00,75.3,69.4,29.70,SE,142,3.0,13.0,82,0.00,,---,0.01,VWS V14.01,2013-11-17 15:03:00,
2013-11-17 09:05:00,75.3,69.4,29.70,SE,142,7.0,13.0,82,0.00,,,0.01,Wunderground v.1.15,2013-11-17 15:05:00,
2013-11-17 09:09:00,75.4,69.2,29.70,South,179,6.0,17.0,81,0.00,,---,0.01,VWS V14.01,2013-11-17 15:09:00,
2013-11-17 09:10:00,75.4,69.2,29.70,South,180,7.0,7.0,81,0.00,,,0.01,Wunderground v.1.15,2013-11-17 15:10:00,
2013-11-17 09:14:00,75.6,69.7,29.70,South,191,3.0,10.0,82,0.00,,---,0.01,VWS V14.01,2013-11-17 15:14:00,
2013-11-17 09:15:00,75.6,69.7,29.70,South,190,6.0,7.0,82,0.00,,,0.01,Wunderground v.1.15,2013-11-17 15:15:00,
2013-11-17 09:19:00,75.8,69.6,29.71,SSE,156,3.0,12.0,81,0.00,,---,0.01,VWS V14.01,2013-11-17 15:19:00,
2013-11-17 09:20:00,75.8,69.6,29.70,SSE,156,6.0,6.0,81,0.00,,,0.01,Wunderground v.1.15,2013-11-17 15:20:00,
2013-11-17 09:25:00,76.0,69.8,29.71,SSW,193,3.0,7.0,81,0.00,,---,0.01,VWS V14.01,2013-11-17 15:25:00,
2013-11-17 09:30:00,76.1,69.1,29.71,SSW,204,5.0,5.0,79,0.00,,,0.01,Wunderground v.1.15,2013-11-17 15:30:00,
2013-11-17 09:35:00,76.3,69.7,29.70,South,188,5.0,5.0,80,0.00,,,0.01,Wunderground v.1.15,2013-11-17 15:35:00,
2013-11-17 09:40:00,76.3,68.9,29.71,SW,219,5.0,6.0,78,0.00,,,0.01,Wunderground v.1.15,2013-11-17 15:40:00,
2013-11-17 09:45:00,76.5,68.7,29.70,SSW,207,6.0,6.0,77,0.00,,,0.01,Wunderground v.1.15,2013-11-17 15:45:00,
2013-11-17 09:50:00,76.7,69.3,29.71,SSW,207,6.0,6.0,78,0.00,,,0.01,Wunderground v.1.15,2013-11-17 15:50:00,
2013-11-17 09:55:00,77.0,69.2,29.71,SSE,153,6.0,12.0,77,0.00,,,0.01,Wunderground v.1.15,2013-11-17 15:55:00,
2013-11-17 09:56:00,77.0,69.2,29.71,SSE,167,13.0,13.0,77,0.00,,---,0.01,VWS V14.01,2013-11-17 15:56:00,
2013-11-17 10:00:00,77.2,68.7,29.71,SSW,212,8.0,17.0,75,0.00,,,0.01,Wunderground v.1.15,2013-11-17 16:00:00,
2013-11-17 10:05:00,77.4,68.5,29.71,SSW,198,9.0,17.0,74,0.00,,,0.01,Wunderground v.1.15,2013-11-17 16:05:00,
2013-11-17 10:10:00,77.9,68.5,29.71,West,279,7.0,7.0,73,0.00,,,0.01,Wunderground v.1.15,2013-11-17 16:10:00,
2013-11-17 10:15:00,78.1,68.3,29.71,West,260,5.0,11.0,72,0.00,,,0.01,Wunderground v.1.15,2013-11-17 16:15:00,
2013-11-17 10:16:00,78.1,68.3,29.71,SW,222,6.0,13.0,72,0.00,,---,0.01,VWS V14.01,2013-11-17 16:16:00,
2013-11-17 10:20:00,78.3,68.1,29.71,SW,214,5.0,10.0,71,0.00,,,0.01,Wunderground v.1.15,2013-11-17 16:20:00,
2013-11-17 10:21:00,78.3,68.1,29.71,South,181,6.0,12.0,71,0.00,,---,0.01,VWS V14.01,2013-11-17 16:21:00,
2013-11-17 10:25:00,78.5,68.3,29.71,South,187,6.0,10.0,71,0.00,,,0.01,Wunderground v.1.15,2013-11-17 16:25:00,
2013-11-17 10:26:00,78.5,68.3,29.71,South,190,11.0,12.0,71,0.00,,---,0.01,VWS V14.01,2013-11-17 16:26:00,
2013-11-17 10:30:00,78.6,68.0,29.71,South,191,6.0,13.0,70,0.00,,,0.01,Wunderground v.1.15,2013-11-17 16:30:00,
2013-11-17 10:31:00,78.6,68.0,29.71,SE,139,3.0,13.0,70,0.00,,---,0.01,VWS V14.01,2013-11-17 16:31:00,
2013-11-17 10:35:00,78.6,68.0,29.71,South,183,7.0,13.0,70,0.00,,,0.01,Wunderground v.1.15,2013-11-17 16:35:00,
2013-11-17 10:36:00,78.8,68.2,29.71,West,265,2.0,13.0,70,0.00,,---,0.01,VWS V14.01,2013-11-17 16:36:00,
2013-11-17 10:40:00,78.8,67.8,29.71,SSE,167,6.0,8.0,69,0.00,,,0.01,Wunderground v.1.15,2013-11-17 16:40:00,
2013-11-17 10:41:00,78.8,67.8,29.71,SSE,167,3.0,11.0,69,0.00,,---,0.01,VWS V14.01,2013-11-17 16:41:00,
2013-11-17 10:46:00,78.8,67.4,29.71,SSE,153,8.0,16.0,68,0.00,,---,0.01,VWS V14.01,2013-11-17 16:46:00,
2013-11-17 10:50:00,79.2,67.7,29.71,South,169,6.0,13.0,68,0.00,,,0.01,Wunderground v.1.15,2013-11-17 16:50:00,
2013-11-17 10:52:00,79.4,67.9,29.71,SSW,210,5.0,13.0,68,0.00,,---,0.01,VWS V14.01,2013-11-17 16:52:00,
2013-11-17 10:55:00,79.6,67.2,29.71,SE,139,7.0,13.0,66,0.00,,,0.01,Wunderground v.1.15,2013-11-17 16:55:00,
2013-11-17 10:57:00,79.6,67.2,29.71,SE,139,8.0,16.0,66,0.00,,---,0.01,VWS V14.01,2013-11-17 16:57:00,
2013-11-17 11:00:00,79.8,67.0,29.71,West,259,7.0,10.0,65,0.00,,,0.01,Wunderground v.1.15,2013-11-17 17:00:00,
2013-11-17 11:02:00,80.1,66.8,29.71,SSW,208,5.0,14.0,64,0.00,,---,0.01,VWS V14.01,2013-11-17 17:02:00,
2013-11-17 11:07:00,80.9,67.1,29.71,South,188,3.0,14.0,63,0.00,,---,0.01,VWS V14.01,2013-11-17 17:07:00,
2013-11-17 11:10:00,81.1,67.3,29.71,SSE,162,6.0,6.0,63,0.00,,,0.01,Wunderground v.1.15,2013-11-17 17:10:00,
2013-11-17 11:13:00,80.7,67.4,29.71,West,279,3.0,10.0,64,0.00,,---,0.01,VWS V14.01,2013-11-17 17:13:00,
2013-11-17 11:15:00,80.7,67.4,29.71,SSW,193,5.0,8.0,64,0.00,,,0.01,Wunderground v.1.15,2013-11-17 17:15:00,
2013-11-17 11:18:00,80.5,67.2,29.71,SSW,201,2.0,12.0,64,0.00,,---,0.01,VWS V14.01,2013-11-17 17:18:00,
2013-11-17 11:23:00,80.7,66.0,29.71,SSW,194,1.0,12.0,61,0.00,,---,0.01,VWS V14.01,2013-11-17 17:23:00,
2013-11-17 11:25:00,80.7,66.0,29.71,West,275,5.0,8.0,61,0.00,,,0.01,Wunderground v.1.15,2013-11-17 17:25:00,
2013-11-17 11:28:00,80.7,65.1,29.70,SSW,193,7.0,12.0,59,0.00,,---,0.01,VWS V14.01,2013-11-17 17:28:00,
2013-11-17 11:30:00,80.9,64.7,29.70,WNW,283,6.0,7.0,58,0.00,,,0.01,Wunderground v.1.15,2013-11-17 17:30:00,
2013-11-17 11:33:00,80.9,64.8,29.70,West,273,2.0,7.0,58,0.00,,---,0.01,VWS V14.01,2013-11-17 17:33:00,
2013-11-17 11:35:00,80.9,64.7,29.71,SSW,205,5.0,7.0,58,0.00,,,0.01,Wunderground v.1.15,2013-11-17 17:35:00,
2013-11-17 11:38:00,80.9,64.8,29.71,South,191,2.0,7.0,58,0.00,,---,0.01,VWS V14.01,2013-11-17 17:38:00,
2013-11-17 11:40:00,81.8,65.6,29.70,West,269,4.0,6.0,58,0.00,,,0.01,Wunderground v.1.15,2013-11-17 17:40:00,
2013-11-17 11:44:00,81.6,65.4,29.70,WSW,246,7.0,7.0,58,0.00,,---,0.01,VWS V14.01,2013-11-17 17:44:00,
2013-11-17 11:45:00,81.8,63.5,29.70,West,265,4.0,6.0,54,0.00,,,0.01,Wunderground v.1.15,2013-11-17 17:45:00,
2013-11-17 11:49:00,81.8,63.5,29.70,WSW,256,3.0,7.0,54,0.00,,---,0.01,VWS V14.01,2013-11-17 17:49:00,
2013-11-17 11:50:00,81.8,64.1,29.70,South,171,4.0,7.0,55,0.00,,,0.01,Wunderground v.1.15,2013-11-17 17:50:00,
2013-11-17 11:54:00,81.6,63.9,29.70,South,188,1.0,11.0,55,0.00,,---,0.01,VWS V14.01,2013-11-17 17:54:00,
2013-11-17 11:59:00,81.4,63.7,29.70,West,267,6.0,11.0,55,0.00,,---,0.01,VWS V14.01,2013-11-17 17:59:00,
2013-11-17 12:00:00,81.4,63.7,29.70,WSW,242,4.0,4.0,55,0.00,,,0.01,Wunderground v.1.15,2013-11-17 18:00:00,
2013-11-17 12:04:00,81.1,62.4,29.70,WSW,252,3.0,16.0,53,0.00,,---,0.01,VWS V14.01,2013-11-17 18:04:00,
2013-11-17 12:05:00,81.1,62.3,29.70,West,269,5.0,5.0,53,0.00,,,0.01,Wunderground v.1.15,2013-11-17 18:05:00,
2013-11-17 12:09:00,81.1,62.4,29.70,SSW,203,5.0,16.0,53,0.00,,---,0.01,VWS V14.01,2013-11-17 18:09:00,
2013-11-17 12:14:00,81.8,61.4,29.70,SSW,201,3.0,7.0,50,0.00,,---,0.01,VWS V14.01,2013-11-17 18:14:00,
2013-11-17 12:15:00,81.8,61.9,29.70,South,181,5.0,8.0,51,0.00,,,0.01,Wunderground v.1.15,2013-11-17 18:15:00,
2013-11-17 12:19:00,82.0,61.5,29.69,SW,225,5.0,12.0,50,0.00,,---,0.01,VWS V14.01,2013-11-17 18:19:00,
2013-11-17 12:24:00,82.0,61.5,29.69,SSW,201,2.0,5.0,50,0.00,,---,0.01,VWS V14.01,2013-11-17 18:24:00,
2013-11-17 12:25:00,81.6,61.2,29.69,West,266,5.0,8.0,50,0.00,,,0.01,Wunderground v.1.15,2013-11-17 18:25:00,
2013-11-17 12:30:00,81.8,61.4,29.69,West,277,6.0,6.0,50,0.00,,---,0.01,VWS V14.01,2013-11-17 18:30:00,
2013-11-17 12:35:00,82.2,61.7,29.69,West,273,8.0,14.0,50,0.00,,---,0.01,VWS V14.01,2013-11-17 18:35:00,
2013-11-17 12:40:00,82.8,62.3,29.69,SW,225,8.0,8.0,50,0.00,,---,0.01,VWS V14.01,2013-11-17 18:40:00,
2013-11-17 12:45:00,83.0,61.3,29.68,SW,219,5.0,5.0,48,0.00,,,0.01,Wunderground v.1.15,2013-11-17 18:45:00,
2013-11-17 12:50:00,83.0,60.7,29.68,SSW,200,5.0,6.0,47,0.00,,,0.01,Wunderground v.1.15,2013-11-17 18:50:00,
2013-11-17 12:55:00,83.0,61.3,29.68,West,269,3.0,7.0,48,0.00,,---,0.01,VWS V14.01,2013-11-17 18:55:00,
2013-11-17 13:00:00,83.0,61.3,29.68,WNW,303,4.0,7.0,48,0.00,,,0.01,Wunderground v.1.15,2013-11-17 19:00:00,
2013-11-17 13:05:00,83.0,61.3,29.68,SSW,208,6.0,7.0,48,0.00,,,0.01,Wunderground v.1.15,2013-11-17 19:05:00,
2013-11-17 13:10:00,83.2,61.5,29.68,SSW,204,8.0,11.0,48,0.00,,,0.01,Wunderground v.1.15,2013-11-17 19:10:00,
2013-11-17 13:15:00,83.4,61.1,29.68,WSW,256,6.0,11.0,47,0.00,,,0.01,Wunderground v.1.15,2013-11-17 19:15:00,
2013-11-17 13:20:00,83.4,61.1,29.68,SW,221,5.0,6.0,47,0.00,,---,0.01,VWS V14.01,2013-11-17 19:20:00,
2013-11-17 13:25:00,83.6,61.2,29.68,SSW,204,4.0,6.0,47,0.00,,,0.01,Wunderground v.1.15,2013-11-17 19:25:00,
2013-11-17 13:30:00,84.0,61.6,29.68,WNW,297,4.0,11.0,47,0.00,,,0.01,Wunderground v.1.15,2013-11-17 19:30:00,
2013-11-17 13:31:00,83.8,61.4,29.68,WNW,287,11.0,11.0,47,0.00,,---,0.01,VWS V14.01,2013-11-17 19:31:00,
2013-11-17 13:35:00,83.6,61.2,29.68,West,280,6.0,11.0,47,0.00,,,0.01,Wunderground v.1.15,2013-11-17 19:35:00,
2013-11-17 13:36:00,83.6,61.3,29.68,West,276,2.0,12.0,47,0.00,,---,0.01,VWS V14.01,2013-11-17 19:36:00,
2013-11-17 13:40:00,83.6,61.2,29.68,WNW,297,6.0,6.0,47,0.00,,,0.01,Wunderground v.1.15,2013-11-17 19:40:00,
2013-11-17 13:41:00,83.6,61.3,29.68,WNW,297,5.0,5.0,47,0.00,,---,0.01,VWS V14.01,2013-11-17 19:41:00,
2013-11-17 13:45:00,83.6,56.7,29.68,West,273,6.0,6.0,40,0.00,,,0.01,Wunderground v.1.15,2013-11-17 19:45:00,
2013-11-17 13:46:00,83.6,57.4,29.68,WSW,256,5.0,11.0,41,0.00,,---,0.01,VWS V14.01,2013-11-17 19:46:00,
2013-11-17 13:50:00,83.8,57.6,29.69,SSW,208,5.0,6.0,41,0.00,,,0.01,Wunderground v.1.15,2013-11-17 19:50:00,
2013-11-17 13:51:00,83.8,57.6,29.68,West,275,1.0,11.0,41,0.00,,---,0.01,VWS V14.01,2013-11-17 19:51:00,
2013-11-17 13:55:00,83.8,56.2,29.69,West,275,6.0,13.0,39,0.00,,,0.01,Wunderground v.1.15,2013-11-17 19:55:00,
2013-11-17 13:56:00,83.6,56.0,29.68,WNW,289,3.0,13.0,39,0.00,,---,0.01,VWS V14.01,2013-11-17 19:56:00,
2013-11-17 14:00:00,83.6,55.3,29.68,WNW,297,6.0,6.0,38,0.00,,,0.01,Wunderground v.1.15,2013-11-17 20:00:00,
2013-11-17 14:01:00,83.6,55.3,29.69,WNW,297,5.0,5.0,38,0.00,,---,0.01,VWS V14.01,2013-11-17 20:01:00,
2013-11-17 14:05:00,83.6,55.3,29.69,West,275,6.0,6.0,38,0.00,,,0.01,Wunderground v.1.15,2013-11-17 20:05:00,
2013-11-17 14:06:00,83.6,55.3,29.69,West,275,5.0,12.0,38,0.00,,---,0.01,VWS V14.01,2013-11-17 20:06:00,
2013-11-17 14:10:00,83.4,55.1,29.69,SW,222,6.0,6.0,38,0.00,,,0.01,Wunderground v.1.15,2013-11-17 20:10:00,
2013-11-17 14:12:00,83.4,55.2,29.69,NW,311,5.0,6.0,38,0.00,,---,0.01,VWS V14.01,2013-11-17 20:12:00,
2013-11-17 14:15:00,83.6,55.3,29.69,West,267,4.0,6.0,38,0.00,,,0.01,Wunderground v.1.15,2013-11-17 20:15:00,
2013-11-17 14:17:00,83.6,55.3,29.69,West,262,6.0,10.0,38,0.00,,---,0.01,VWS V14.01,2013-11-17 20:17:00,
2013-11-17 14:20:00,83.8,56.9,29.69,South,190,4.0,4.0,40,0.00,,,0.01,Wunderground v.1.15,2013-11-17 20:20:00,
2013-11-17 14:22:00,83.8,56.9,29.69,WNW,290,3.0,6.0,40,0.00,,---,0.01,VWS V14.01,2013-11-17 20:22:00,
2013-11-17 14:25:00,83.8,56.9,29.69,West,267,4.0,4.0,40,0.00,,,0.01,Wunderground v.1.15,2013-11-17 20:25:00,
2013-11-17 14:27:00,83.8,56.9,29.69,SW,228,2.0,12.0,40,0.00,,---,0.01,VWS V14.01,2013-11-17 20:27:00,
2013-11-17 14:30:00,83.8,54.7,29.69,West,273,4.0,4.0,37,0.00,,,0.01,Wunderground v.1.15,2013-11-17 20:30:00,
2013-11-17 14:32:00,83.6,54.6,29.69,West,280,2.0,3.0,37,0.00,,---,0.01,VWS V14.01,2013-11-17 20:32:00,
2013-11-17 14:35:00,83.6,54.6,29.69,West,260,5.0,6.0,37,0.00,,,0.01,Wunderground v.1.15,2013-11-17 20:35:00,
2013-11-17 14:38:00,83.6,54.6,29.69,WSW,258,3.0,10.0,37,0.00,,---,0.01,VWS V14.01,2013-11-17 20:38:00,
2013-11-17 14:40:00,83.6,54.6,29.69,South,174,4.0,4.0,37,0.00,,,0.01,Wunderground v.1.15,2013-11-17 20:40:00,
2013-11-17 14:43:00,83.8,54.0,29.69,West,272,6.0,6.0,36,0.00,,---,0.01,VWS V14.01,2013-11-17 20:43:00,
2013-11-17 14:45:00,83.6,53.1,29.69,West,262,4.0,4.0,35,0.00,,,0.01,Wunderground v.1.15,2013-11-17 20:45:00,
2013-11-17 14:48:00,83.6,53.8,29.69,West,259,5.0,11.0,36,0.00,,---,0.01,VWS V14.01,2013-11-17 20:48:00,
2013-11-17 14:50:00,83.4,52.9,29.69,SW,224,5.0,5.0,35,0.00,,,0.01,Wunderground v.1.15,2013-11-17 20:50:00,
2013-11-17 14:53:00,83.4,53.7,29.70,WNW,287,6.0,11.0,36,0.00,,---,0.01,VWS V14.01,2013-11-17 20:53:00,
2013-11-17 14:55:00,83.2,53.5,29.70,West,269,5.0,5.0,36,0.00,,,0.01,Wunderground v.1.15,2013-11-17 20:55:00,
2013-11-17 14:59:00,83.2,53.5,29.70,South,176,1.0,11.0,36,0.00,,---,0.01,VWS V14.01,2013-11-17 20:59:00,
2013-11-17 15:00:00,83.2,53.5,29.70,WNW,300,5.0,11.0,36,0.00,,,0.01,Wunderground v.1.15,2013-11-17 21:00:00,
2013-11-17 15:04:00,83.2,53.5,29.70,WSW,241,2.0,11.0,36,0.00,,---,0.01,VWS V14.01,2013-11-17 21:04:00,
2013-11-17 15:05:00,83.0,54.0,29.70,SW,222,6.0,11.0,37,0.00,,,0.01,Wunderground v.1.15,2013-11-17 21:05:00,
2013-11-17 15:09:00,83.4,53.7,29.70,WNW,283,5.0,11.0,36,0.00,,---,0.01,VWS V14.01,2013-11-17 21:09:00,
2013-11-17 15:10:00,83.4,53.6,29.70,West,275,5.0,5.0,36,0.00,,,0.01,Wunderground v.1.15,2013-11-17 21:10:00,
2013-11-17 15:14:00,83.4,53.7,29.70,WNW,284,3.0,6.0,36,0.00,,---,0.01,VWS V14.01,2013-11-17 21:14:00,
2013-11-17 15:15:00,83.4,53.6,29.70,WNW,282,3.0,5.0,36,0.00,,,0.01,Wunderground v.1.15,2013-11-17 21:15:00,
2013-11-17 15:19:00,83.6,54.6,29.70,SW,214,7.0,8.0,37,0.00,,---,0.01,VWS V14.01,2013-11-17 21:19:00,
2013-11-17 15:20:00,83.6,54.6,29.70,SW,214,3.0,3.0,37,0.00,,,0.01,Wunderground v.1.15,2013-11-17 21:20:00,
2013-11-17 15:24:00,83.6,53.1,29.71,West,269,1.0,6.0,35,0.00,,---,0.01,VWS V14.01,2013-11-17 21:24:00,
2013-11-17 15:25:00,83.6,53.1,29.71,SSW,210,3.0,3.0,35,0.00,,,0.01,Wunderground v.1.15,2013-11-17 21:25:00,
2013-11-17 15:29:00,83.4,52.9,29.71,West,272,5.0,10.0,35,0.00,,---,0.01,VWS V14.01,2013-11-17 21:29:00,
2013-11-17 15:30:00,83.4,52.9,29.71,West,267,3.0,5.0,35,0.00,,,0.01,Wunderground v.1.15,2013-11-17 21:30:00,
2013-11-17 15:34:00,83.2,52.7,29.71,South,180,5.0,11.0,35,0.00,,---,0.01,VWS V14.01,2013-11-17 21:34:00,
2013-11-17 15:35:00,83.2,52.7,29.71,WNW,284,4.0,5.0,35,0.00,,,0.01,Wunderground v.1.15,2013-11-17 21:35:00,
2013-11-17 15:39:00,83.0,51.8,29.71,WSW,255,2.0,11.0,34,0.00,,---,0.01,VWS V14.01,2013-11-17 21:39:00,
2013-11-17 15:40:00,83.0,51.7,29.71,WSW,255,4.0,4.0,34,0.00,,,0.01,Wunderground v.1.15,2013-11-17 21:40:00,
2013-11-17 15:44:00,83.0,52.6,29.71,West,276,3.0,6.0,35,0.00,,---,0.01,VWS V14.01,2013-11-17 21:44:00,
2013-11-17 15:45:00,83.0,52.5,29.71,West,259,3.0,4.0,35,0.00,,,0.01,Wunderground v.1.15,2013-11-17 21:45:00,
2013-11-17 15:49:00,83.0,53.3,29.72,West,269,1.0,6.0,36,0.00,,---,0.01,VWS V14.01,2013-11-17 21:49:00,
2013-11-17 15:50:00,83.2,53.5,29.72,West,267,2.0,2.0,36,0.00,,,0.01,Wunderground v.1.15,2013-11-17 21:50:00,
2013-11-17 15:54:00,83.2,53.5,29.72,WSW,258,1.0,5.0,36,0.00,,---,0.01,VWS V14.01,2013-11-17 21:54:00,
2013-11-17 15:55:00,83.2,53.5,29.72,WSW,258,2.0,2.0,36,0.00,,,0.01,Wunderground v.1.15,2013-11-17 21:55:00,
2013-11-17 15:59:00,83.4,54.4,29.72,WSW,258,1.0,5.0,37,0.00,,---,0.01,VWS V14.01,2013-11-17 21:59:00,
2013-11-17 16:00:00,83.4,52.9,29.72,WSW,258,2.0,2.0,35,0.00,,,0.01,Wunderground v.1.15,2013-11-17 22:00:00,
2013-11-17 16:05:00,83.2,53.5,29.72,SW,214,1.0,5.0,36,0.00,,---,0.01,VWS V14.01,2013-11-17 22:05:00,
2013-11-17 16:10:00,82.8,51.6,29.73,SSW,212,1.0,1.0,34,0.00,,---,0.01,VWS V14.01,2013-11-17 22:10:00,
2013-11-17 16:15:00,82.6,50.6,29.73,WSW,252,2.0,3.0,33,0.00,,---,0.01,VWS V14.01,2013-11-17 22:15:00,
2013-11-17 16:20:00,82.2,51.8,29.73,SSW,201,1.0,2.0,35,0.00,,,0.01,Wunderground v.1.15,2013-11-17 22:20:00,
2013-11-17 16:25:00,82.0,51.6,29.73,SW,215,1.0,2.0,35,0.00,,,0.01,Wunderground v.1.15,2013-11-17 22:25:00,
2013-11-17 16:30:00,81.6,54.9,29.74,SW,215,0.0,0.0,40,0.00,,,0.01,Wunderground v.1.15,2013-11-17 22:30:00,
2013-11-17 16:35:00,80.9,55.7,29.74,SW,215,1.0,1.0,42,0.00,,,0.01,Wunderground v.1.15,2013-11-17 22:35:00,
2013-11-17 16:40:00,79.8,56.6,29.74,SW,215,1.0,1.0,45,0.00,,,0.01,Wunderground v.1.15,2013-11-17 22:40:00,
2013-11-17 16:45:00,78.3,58.7,29.75,SW,215,1.0,1.0,51,0.00,,,0.01,Wunderground v.1.15,2013-11-17 22:45:00,
2013-11-17 16:50:00,76.3,60.4,29.75,SW,215,1.0,1.0,58,0.00,,,0.01,Wunderground v.1.15,2013-11-17 22:50:00,
2013-11-17 16:51:00,76.3,60.5,29.75,SW,215,1.0,1.0,58,0.00,,---,0.01,VWS V14.01,2013-11-17 22:51:00,
2013-11-17 16:56:00,73.9,59.2,29.75,SW,215,0.0,2.0,60,0.00,,---,0.01,VWS V14.01,2013-11-17 22:56:00,
2013-11-17 17:00:00,72.5,60.5,29.75,SW,215,0.0,0.0,66,0.00,,,0.01,Wunderground v.1.15,2013-11-17 23:00:00,
2013-11-17 17:01:00,72.5,60.5,29.75,SW,215,1.0,1.0,66,0.00,,---,0.01,VWS V14.01,2013-11-17 23:01:00,
2013-11-17 17:05:00,71.1,60.0,29.76,SW,215,0.0,0.0,68,0.00,,,0.01,Wunderground v.1.15,2013-11-17 23:05:00,
2013-11-17 17:06:00,70.8,59.7,29.76,SW,215,0.0,1.0,68,0.00,,---,0.01,VWS V14.01,2013-11-17 23:06:00,
2013-11-17 17:11:00,69.6,59.8,29.76,SW,215,0.0,0.0,71,0.00,,---,0.01,VWS V14.01,2013-11-17 23:11:00,
2013-11-17 17:15:00,68.4,59.4,29.76,SW,215,0.0,0.0,73,0.00,,,0.01,Wunderground v.1.15,2013-11-17 23:15:00,
2013-11-17 17:16:00,68.3,59.3,29.76,SW,215,0.0,0.0,73,0.00,,---,0.01,VWS V14.01,2013-11-17 23:16:00,
2013-11-17 17:20:00,67.4,58.8,29.77,SW,215,0.0,0.0,74,0.00,,,0.01,Wunderground v.1.15,2013-11-17 23:20:00,
2013-11-17 17:21:00,67.4,58.8,29.77,SW,215,0.0,0.0,74,0.00,,---,0.01,VWS V14.01,2013-11-17 23:21:00,
2013-11-17 17:25:00,66.4,58.6,29.77,SW,215,0.0,0.0,76,0.00,,,0.01,Wunderground v.1.15,2013-11-17 23:25:00,
2013-11-17 17:27:00,66.3,58.5,29.77,SW,215,0.0,0.0,76,0.00,,---,0.01,VWS V14.01,2013-11-17 23:27:00,
2013-11-17 17:30:00,65.8,58.0,29.77,SW,215,0.0,0.0,76,0.00,,,0.01,Wunderground v.1.15,2013-11-17 23:30:00,
2013-11-17 17:32:00,65.6,58.2,29.77,SW,215,0.0,0.0,77,0.00,,---,0.01,VWS V14.01,2013-11-17 23:32:00,
2013-11-17 17:35:00,65.0,57.6,29.77,SW,215,0.0,0.0,77,0.00,,,0.01,Wunderground v.1.15,2013-11-17 23:35:00,
2013-11-17 17:37:00,64.8,57.4,29.77,SW,215,0.0,0.0,77,0.00,,---,0.01,VWS V14.01,2013-11-17 23:37:00,
2013-11-17 17:40:00,64.3,57.3,29.77,SW,215,0.0,0.0,78,0.00,,,0.01,Wunderground v.1.15,2013-11-17 23:40:00,
2013-11-17 17:42:00,64.0,57.0,29.78,SW,215,0.0,0.0,78,0.00,,---,0.01,VWS V14.01,2013-11-17 23:42:00,
2013-11-17 17:45:00,63.7,57.1,29.78,SW,215,0.0,0.0,79,0.00,,,0.01,Wunderground v.1.15,2013-11-17 23:45:00,
2013-11-17 17:47:00,63.5,56.9,29.78,SW,215,0.0,0.0,79,0.00,,---,0.01,VWS V14.01,2013-11-17 23:47:00,
2013-11-17 17:50:00,63.2,56.9,29.78,SW,215,0.0,0.0,80,0.00,,,0.01,Wunderground v.1.15,2013-11-17 23:50:00,
2013-11-17 17:52:00,63.1,56.8,29.78,SW,215,0.0,0.0,80,0.00,,---,0.01,VWS V14.01,2013-11-17 23:52:00,
2013-11-17 17:55:00,62.9,56.6,29.78,SW,215,0.0,0.0,80,0.00,,,0.01,Wunderground v.1.15,2013-11-17 23:55:00,
2013-11-17 17:58:00,62.4,56.5,29.79,SW,215,0.0,0.0,81,0.00,,---,0.01,VWS V14.01,2013-11-17 23:58:00,
2013-11-17 18:00:00,62.1,56.2,29.79,SW,215,0.0,0.0,81,0.00,,,0.01,Wunderground v.1.15,2013-11-18 00:00:00,
2013-11-17 18:04:00,61.6,55.7,29.79,SW,215,0.0,0.0,81,0.00,,---,0.01,VWS V14.01,2013-11-18 00:04:00,
2013-11-17 18:05:00,61.6,55.7,29.79,SW,215,0.0,0.0,81,0.00,,,0.01,Wunderground v.1.15,2013-11-18 00:05:00,
2013-11-17 18:09:00,61.3,56.4,29.79,SW,215,0.0,0.0,84,0.00,,---,0.01,VWS V14.01,2013-11-18 00:09:00,
2013-11-17 18:14:00,60.7,56.2,29.80,SW,215,0.0,0.0,85,0.00,,---,0.01,VWS V14.01,2013-11-18 00:14:00,
2013-11-17 18:15:00,60.5,55.6,29.80,SW,215,0.0,0.0,84,0.00,,,0.01,Wunderground v.1.15,2013-11-18 00:15:00,
2013-11-17 18:19:00,60.4,55.5,29.80,SW,215,0.0,0.0,84,0.00,,---,0.01,VWS V14.01,2013-11-18 00:19:00,
2013-11-17 18:20:00,60.2,55.3,29.80,SW,215,0.0,0.0,84,0.00,,,0.01,Wunderground v.1.15,2013-11-18 00:20:00,
2013-11-17 18:24:00,59.9,55.4,29.80,SW,215,0.0,0.0,85,0.00,,---,0.01,VWS V14.01,2013-11-18 00:24:00,
2013-11-17 18:25:00,59.9,55.4,29.80,SW,215,0.0,0.0,85,0.00,,,0.01,Wunderground v.1.15,2013-11-18 00:25:00,
2013-11-17 18:29:00,59.5,55.3,29.80,SW,215,0.0,0.0,86,0.00,,---,0.01,VWS V14.01,2013-11-18 00:29:00,
2013-11-17 18:30:00,59.5,55.3,29.80,SW,215,0.0,0.0,86,0.00,,,0.01,Wunderground v.1.15,2013-11-18 00:30:00,
2013-11-17 18:34:00,59.2,55.0,29.81,SW,215,0.0,0.0,86,0.00,,---,0.01,VWS V14.01,2013-11-18 00:34:00,
2013-11-17 18:35:00,59.2,55.0,29.81,SW,215,0.0,0.0,86,0.00,,,0.01,Wunderground v.1.15,2013-11-18 00:35:00,
2013-11-17 18:39:00,58.9,55.0,29.81,SW,215,0.0,0.0,87,0.00,,---,0.01,VWS V14.01,2013-11-18 00:39:00,
2013-11-17 18:40:00,58.7,54.8,29.81,SW,215,0.0,0.0,87,0.00,,,0.01,Wunderground v.1.15,2013-11-18 00:40:00,
2013-11-17 18:44:00,58.6,54.8,29.81,SW,215,0.0,0.0,87,0.00,,---,0.01,VWS V14.01,2013-11-18 00:44:00,
2013-11-17 18:45:00,58.6,54.7,29.81,SW,215,0.0,0.0,87,0.00,,,0.01,Wunderground v.1.15,2013-11-18 00:45:00,
2013-11-17 18:49:00,58.4,54.5,29.82,SW,215,0.0,0.0,87,0.00,,---,0.01,VWS V14.01,2013-11-18 00:49:00,
2013-11-17 18:50:00,58.3,54.4,29.82,SW,215,0.0,0.0,87,0.00,,,0.01,Wunderground v.1.15,2013-11-18 00:50:00,
2013-11-17 18:55:00,58.1,54.3,29.82,SW,215,0.0,0.0,87,0.00,,---,0.01,VWS V14.01,2013-11-18 00:55:00,
2013-11-17 19:00:00,58.0,54.2,29.83,SW,215,0.0,0.0,87,0.00,,---,0.01,VWS V14.01,2013-11-18 01:00:00,
2013-11-17 19:05:00,57.6,54.1,29.83,SW,215,0.0,0.0,88,0.00,,,0.01,Wunderground v.1.15,2013-11-18 01:05:00,
2013-11-17 19:10:00,57.5,54.0,29.83,SW,215,0.0,0.0,88,0.00,,---,0.01,VWS V14.01,2013-11-18 01:10:00,
2013-11-17 19:15:00,57.2,53.7,29.83,SW,215,0.0,0.0,88,0.00,,,0.01,Wunderground v.1.15,2013-11-18 01:15:00,
2013-11-17 19:20:00,56.9,53.4,29.84,SW,215,0.0,0.0,88,0.00,,---,0.01,VWS V14.01,2013-11-18 01:20:00,
2013-11-17 19:25:00,56.7,53.2,29.84,SW,215,0.0,0.0,88,0.00,,---,0.01,VWS V14.01,2013-11-18 01:25:00,
2013-11-17 19:30:00,56.5,53.3,29.85,SW,215,0.0,0.0,89,0.00,,---,0.01,VWS V14.01,2013-11-18 01:30:00,
2013-11-17 19:35:00,56.5,53.3,29.85,SW,215,0.0,0.0,89,0.00,,---,0.01,VWS V14.01,2013-11-18 01:35:00,
2013-11-17 19:40:00,56.3,52.8,29.86,SW,215,0.0,0.0,88,0.00,,,0.01,Wunderground v.1.15,2013-11-18 01:40:00,
2013-11-17 19:45:00,56.2,52.7,29.86,SW,215,0.0,0.0,88,0.00,,,0.01,Wunderground v.1.15,2013-11-18 01:45:00,
2013-11-17 19:50:00,56.0,52.5,29.86,SW,215,0.0,0.0,88,0.00,,,0.01,Wunderground v.1.15,2013-11-18 01:50:00,
2013-11-17 19:55:00,56.0,52.5,29.86,SW,215,0.0,0.0,88,0.00,,,0.01,Wunderground v.1.15,2013-11-18 01:55:00,
2013-11-17 20:00:00,55.9,52.1,29.87,SW,215,0.0,0.0,87,0.00,,,0.01,Wunderground v.1.15,2013-11-18 02:00:00,
2013-11-17 20:05:00,55.9,51.5,29.87,SW,215,0.0,0.0,85,0.00,,,0.01,Wunderground v.1.15,2013-11-18 02:05:00,
2013-11-17 20:10:00,56.2,51.7,29.87,SW,215,0.0,0.0,85,0.00,,,0.01,Wunderground v.1.15,2013-11-18 02:10:00,
2013-11-17 20:11:00,56.2,51.8,29.87,SW,215,0.0,0.0,85,0.00,,---,0.01,VWS V14.01,2013-11-18 02:11:00,
2013-11-17 20:15:00,56.2,50.4,29.87,SW,215,0.0,0.0,81,0.00,,,0.01,Wunderground v.1.15,2013-11-18 02:15:00,
2013-11-17 20:16:00,56.2,50.5,29.87,SW,215,0.0,0.0,81,0.00,,---,0.01,VWS V14.01,2013-11-18 02:16:00,
2013-11-17 20:20:00,56.7,49.9,29.88,SW,215,0.0,0.0,78,0.00,,,0.01,Wunderground v.1.15,2013-11-18 02:20:00,
2013-11-17 20:21:00,56.7,49.9,29.88,SW,215,0.0,0.0,78,0.00,,---,0.01,VWS V14.01,2013-11-18 02:21:00,
2013-11-17 20:25:00,57.0,50.2,29.88,SW,215,0.0,0.0,78,0.00,,,0.01,Wunderground v.1.15,2013-11-18 02:25:00,
2013-11-17 20:27:00,57.0,49.9,29.88,SW,215,0.0,0.0,77,0.00,,---,0.01,VWS V14.01,2013-11-18 02:27:00,
2013-11-17 20:30:00,57.0,49.9,29.88,SW,215,0.0,0.0,77,0.00,,,0.01,Wunderground v.1.15,2013-11-18 02:30:00,
2013-11-17 20:32:00,57.0,49.9,29.88,SW,215,0.0,0.0,77,0.00,,---,0.01,VWS V14.01,2013-11-18 02:32:00,
2013-11-17 20:35:00,57.0,49.9,29.88,SW,215,0.0,0.0,77,0.00,,,0.01,Wunderground v.1.15,2013-11-18 02:35:00,
2013-11-17 20:37:00,56.9,49.8,29.89,SW,215,0.0,0.0,77,0.00,,---,0.01,VWS V14.01,2013-11-18 02:37:00,
2013-11-17 20:40:00,56.6,49.8,29.89,SW,215,0.0,0.0,78,0.00,,,0.01,Wunderground v.1.15,2013-11-18 02:40:00,
2013-11-17 20:42:00,56.6,49.8,29.89,SW,215,0.0,0.0,78,0.00,,---,0.01,VWS V14.01,2013-11-18 02:42:00,
2013-11-17 20:45:00,56.5,50.1,29.89,SW,215,0.0,0.0,79,0.00,,,0.01,Wunderground v.1.15,2013-11-18 02:45:00,
2013-11-17 20:47:00,56.2,50.1,29.89,SW,215,0.0,0.0,80,0.00,,---,0.01,VWS V14.01,2013-11-18 02:47:00,
2013-11-17 20:50:00,55.9,49.8,29.89,SW,215,0.0,0.0,80,0.00,,,0.01,Wunderground v.1.15,2013-11-18 02:50:00,
2013-11-17 20:52:00,55.7,50.0,29.89,SW,215,0.0,0.0,81,0.00,,---,0.01,VWS V14.01,2013-11-18 02:52:00,
2013-11-17 20:55:00,55.6,49.9,29.89,SW,215,0.0,0.0,81,0.00,,,0.01,Wunderground v.1.15,2013-11-18 02:55:00,
2013-11-17 20:58:00,55.4,49.7,29.90,SW,215,0.0,0.0,81,0.00,,---,0.01,VWS V14.01,2013-11-18 02:58:00,
2013-11-17 21:00:00,55.1,49.4,29.90,SW,215,0.0,0.0,81,0.00,,,0.01,Wunderground v.1.15,2013-11-18 03:00:00,
2013-11-17 21:03:00,55.0,49.3,29.90,SW,215,0.0,0.0,81,0.00,,---,0.01,VWS V14.01,2013-11-18 03:03:00,
2013-11-17 21:05:00,55.0,49.3,29.90,SW,215,0.0,0.0,81,0.00,,,0.01,Wunderground v.1.15,2013-11-18 03:05:00,
2013-11-17 21:08:00,54.7,49.3,29.90,SW,215,0.0,0.0,82,0.00,,---,0.01,VWS V14.01,2013-11-18 03:08:00,
2013-11-17 21:10:00,54.5,49.4,29.90,SW,215,0.0,0.0,83,0.00,,,0.01,Wunderground v.1.15,2013-11-18 03:10:00,
2013-11-17 21:13:00,54.2,49.2,29.91,SW,215,0.0,0.0,83,0.00,,---,0.01,VWS V14.01,2013-11-18 03:13:00,
2013-11-17 21:15:00,54.1,49.1,29.91,SW,215,0.0,0.0,83,0.00,,,0.01,Wunderground v.1.15,2013-11-18 03:15:00,
2013-11-17 21:19:00,54.1,49.1,29.91,SW,215,0.0,0.0,83,0.00,,---,0.01,VWS V14.01,2013-11-18 03:19:00,
2013-11-17 21:20:00,53.8,49.1,29.91,SW,215,0.0,0.0,84,0.00,,,0.01,Wunderground v.1.15,2013-11-18 03:20:00,
2013-11-17 21:25:00,53.5,48.8,29.91,SW,215,0.0,0.0,84,0.00,,,0.01,Wunderground v.1.15,2013-11-18 03:25:00,
2013-11-17 21:30:00,53.3,48.9,29.91,SW,215,0.0,0.0,85,0.00,,,0.01,Wunderground v.1.15,2013-11-18 03:30:00,
2013-11-17 21:35:00,53.1,48.7,29.92,SW,215,0.0,0.0,85,0.00,,,0.01,Wunderground v.1.15,2013-11-18 03:35:00,
2013-11-17 21:40:00,52.8,48.4,29.92,SW,215,0.0,0.0,85,0.00,,,0.01,Wunderground v.1.15,2013-11-18 03:40:00,
2013-11-17 21:45:00,52.6,48.2,29.92,SW,215,0.0,0.0,85,0.00,,,0.01,Wunderground v.1.15,2013-11-18 03:45:00,
2013-11-17 21:50:00,52.3,47.9,29.92,SW,215,0.0,0.0,85,0.00,,,0.01,Wunderground v.1.15,2013-11-18 03:50:00,
2013-11-17 21:55:00,52.0,47.6,29.93,SW,215,0.0,0.0,85,0.00,,,0.01,Wunderground v.1.15,2013-11-18 03:55:00,
2013-11-17 22:00:00,51.9,47.8,29.93,SW,215,0.0,0.0,86,0.00,,---,0.01,VWS V14.01,2013-11-18 04:00:00,
2013-11-17 22:05:00,51.7,47.6,29.93,SW,215,0.0,0.0,86,0.00,,,0.01,Wunderground v.1.15,2013-11-18 04:05:00,
2013-11-17 22:06:00,51.7,47.7,29.93,SW,215,0.0,0.0,86,0.00,,---,0.01,VWS V14.01,2013-11-18 04:06:00,
2013-11-17 22:10:00,51.7,47.6,29.93,SW,215,0.0,0.0,86,0.00,,,0.01,Wunderground v.1.15,2013-11-18 04:10:00,
2013-11-17 22:11:00,51.7,47.7,29.93,SW,215,0.0,0.0,86,0.00,,---,0.01,VWS V14.01,2013-11-18 04:11:00,
2013-11-17 22:15:00,51.1,47.1,29.93,SW,215,0.0,0.0,86,0.00,,,0.01,Wunderground v.1.15,2013-11-18 04:15:00,
2013-11-17 22:16:00,51.0,47.0,29.93,SW,215,0.0,0.0,86,0.00,,---,0.01,VWS V14.01,2013-11-18 04:16:00,
2013-11-17 22:21:00,51.0,47.0,29.93,SW,215,0.0,0.0,86,0.00,,---,0.01,VWS V14.01,2013-11-18 04:21:00,
2013-11-17 22:25:00,51.0,47.3,29.94,SW,215,0.0,0.0,87,0.00,,,0.01,Wunderground v.1.15,2013-11-18 04:25:00,
2013-11-17 22:26:00,50.5,46.8,29.94,SW,215,0.0,0.0,87,0.00,,---,0.01,VWS V14.01,2013-11-18 04:26:00,
2013-11-17 22:31:00,50.5,46.8,29.94,SW,215,0.0,0.0,87,0.00,,---,0.01,VWS V14.01,2013-11-18 04:31:00,
2013-11-17 22:35:00,50.5,46.8,29.94,SW,215,0.0,0.0,87,0.00,,,0.01,Wunderground v.1.15,2013-11-18 04:35:00,
2013-11-17 22:36:00,50.5,46.8,29.94,SW,215,0.0,0.0,87,0.00,,---,0.01,VWS V14.01,2013-11-18 04:36:00,
2013-11-17 22:40:00,49.9,46.2,29.94,SW,215,0.0,0.0,87,0.00,,,0.01,Wunderground v.1.15,2013-11-18 04:40:00,
2013-11-17 22:42:00,49.9,46.2,29.94,SW,215,0.0,0.0,87,0.00,,---,0.01,VWS V14.01,2013-11-18 04:42:00,
2013-11-17 22:45:00,49.8,46.1,29.94,SW,215,0.0,0.0,87,0.00,,,0.01,Wunderground v.1.15,2013-11-18 04:45:00,
2013-11-17 22:47:00,49.8,46.1,29.94,SW,215,0.0,0.0,87,0.00,,---,0.01,VWS V14.01,2013-11-18 04:47:00,
2013-11-17 22:50:00,49.8,46.1,29.94,SW,215,0.0,0.0,87,0.00,,,0.01,Wunderground v.1.15,2013-11-18 04:50:00,
2013-11-17 22:52:00,49.4,45.7,29.94,SW,215,0.0,0.0,87,0.00,,---,0.01,VWS V14.01,2013-11-18 04:52:00,
2013-11-17 22:55:00,49.4,45.7,29.95,SW,215,0.0,0.0,87,0.00,,,0.01,Wunderground v.1.15,2013-11-18 04:55:00,
2013-11-17 22:58:00,49.4,46.3,29.95,SW,215,0.0,0.0,89,0.00,,---,0.01,VWS V14.01,2013-11-18 04:58:00,
2013-11-17 23:00:00,49.1,46.0,29.95,SW,215,0.0,0.0,89,0.00,,,0.01,Wunderground v.1.15,2013-11-18 05:00:00,
2013-11-17 23:01:00,49.1,46.0,29.95,SW,215,0.0,0.0,89,0.00,,---,0.01,VWS V14.01,2013-11-18 05:01:00,
2013-11-17 23:05:00,49.1,46.0,29.95,SW,215,0.0,0.0,89,0.00,,,0.01,Wunderground v.1.15,2013-11-18 05:05:00,
2013-11-17 23:06:00,48.9,45.8,29.95,SW,215,0.0,0.0,89,0.00,,---,0.01,VWS V14.01,2013-11-18 05:06:00,
2013-11-17 23:10:00,48.8,45.7,29.95,SW,215,0.0,0.0,89,0.00,,,0.01,Wunderground v.1.15,2013-11-18 05:10:00,
2013-11-17 23:12:00,48.8,45.7,29.95,SW,215,0.0,0.0,89,0.00,,---,0.01,VWS V14.01,2013-11-18 05:12:00,
2013-11-17 23:17:00,48.6,45.5,29.95,SW,215,0.0,0.0,89,0.00,,---,0.01,VWS V14.01,2013-11-18 05:17:00,
2013-11-17 23:20:00,48.5,45.4,29.96,SW,215,0.0,0.0,89,0.00,,,0.01,Wunderground v.1.15,2013-11-18 05:20:00,
2013-11-17 23:22:00,48.5,45.4,29.96,SW,215,0.0,0.0,89,0.00,,---,0.01,VWS V14.01,2013-11-18 05:22:00,
2013-11-17 23:25:00,48.5,45.4,29.96,SW,215,0.0,0.0,89,0.00,,,0.01,Wunderground v.1.15,2013-11-18 05:25:00,
2013-11-17 23:27:00,48.3,45.2,29.96,SW,215,0.0,0.0,89,0.00,,---,0.01,VWS V14.01,2013-11-18 05:27:00,
2013-11-17 23:30:00,48.3,45.2,29.96,SW,215,0.0,0.0,89,0.00,,,0.01,Wunderground v.1.15,2013-11-18 05:30:00,
2013-11-17 23:32:00,48.2,45.1,29.96,SW,215,0.0,0.0,89,0.00,,---,0.01,VWS V14.01,2013-11-18 05:32:00,
2013-11-17 23:35:00,48.2,45.1,29.96,SW,215,0.0,0.0,89,0.00,,,0.01,Wunderground v.1.15,2013-11-18 05:35:00,
2013-11-17 23:38:00,48.0,44.9,29.96,SW,215,0.0,0.0,89,0.00,,---,0.01,VWS V14.01,2013-11-18 05:38:00,
2013-11-17 23:40:00,48.0,44.6,29.96,SW,215,0.0,0.0,88,0.00,,,0.01,Wunderground v.1.15,2013-11-18 05:40:00,
2013-11-17 23:44:00,47.9,44.5,29.96,SW,215,0.0,0.0,88,0.00,,---,0.01,VWS V14.01,2013-11-18 05:44:00,
2013-11-17 23:45:00,47.7,44.3,29.96,SW,215,0.0,0.0,88,0.00,,,0.01,Wunderground v.1.15,2013-11-18 05:45:00,
2013-11-17 23:49:00,47.7,44.6,29.96,SW,215,0.0,0.0,89,0.00,,---,0.01,VWS V14.01,2013-11-18 05:49:00,
2013-11-17 23:50:00,47.7,44.6,29.97,SW,215,0.0,0.0,89,0.00,,,0.01,Wunderground v.1.15,2013-11-18 05:50:00,
2013-11-17 23:54:00,47.6,44.5,29.96,SW,215,0.0,0.0,89,0.00,,---,0.01,VWS V14.01,2013-11-18 05:54:00,
2013-11-17 23:55:00,47.6,44.5,29.96,SW,215,0.0,0.0,89,0.00,,,0.01,Wunderground v.1.15,2013-11-18 05:55:00,